Time,TemperatureF,DewpointF,PressureIn,WindDirection,WindDirectionDegrees,WindSpeedMPH,WindSpeedGustMPH,Humidity,HourlyPrecipIn,Conditions,Clouds,dailyrainin,SoftwareType,DateUTC
2013-10-16 00:00:00,52.7,51.3,30.01,NNE,24,8.0,8.0,95,0.05,,,0.90,Wunderground v.1.15,2013-10-16 05:00:00,
2013-10-16 00:10:00,52.7,51.3,30.02,North,5,5.0,9.0,95,0.05,,,0.00,Wunderground v.1.15,2013-10-16 05:10:00,
2013-10-16 00:20:00,52.7,51.3,30.02,North,5,6.0,6.0,95,0.00,,,0.00,Wunderground v.1.15,2013-10-16 05:20:00,
2013-10-16 00:25:00,52.7,51.3,30.02,North,11,5.0,6.0,95,0.00,,,0.00,Wunderground v.1.15,2013-10-16 05:25:00,
2013-10-16 00:30:00,52.8,51.4,30.02,NW,326,4.0,6.0,95,0.00,,,0.00,Wunderground v.1.15,2013-10-16 05:30:00,
2013-10-16 00:35:00,52.9,51.5,30.02,North,355,6.0,7.0,95,0.00,,,0.00,Wunderground v.1.15,2013-10-16 05:35:00,
2013-10-16 00:45:00,52.9,51.5,30.02,North,360,8.0,10.0,95,0.00,,,0.00,Wunderground v.1.15,2013-10-16 05:45:00,
2013-10-16 00:50:00,52.9,51.5,30.02,North,360,9.0,9.0,95,0.00,,,0.01,Wunderground v.1.15,2013-10-16 05:50:00,
2013-10-16 00:55:00,52.9,51.5,30.02,NNW,340,8.0,9.0,95,0.00,,,0.01,Wunderground v.1.15,2013-10-16 05:55:00,
2013-10-16 01:00:00,53.0,51.6,30.02,North,360,6.0,6.0,95,0.05,,,0.02,Wunderground v.1.15,2013-10-16 06:00:00,
2013-10-16 01:10:00,53.0,51.6,30.02,North,5,8.0,8.0,95,0.10,,,0.03,Wunderground v.1.15,2013-10-16 06:10:00,
2013-10-16 01:15:00,53.1,51.7,30.02,North,360,6.0,8.0,95,0.06,,,0.03,Wunderground v.1.15,2013-10-16 06:15:00,
2013-10-16 01:20:00,53.1,51.7,30.02,NNW,346,7.0,7.0,95,0.04,,,0.03,Wunderground v.1.15,2013-10-16 06:20:00,
2013-10-16 01:30:00,53.1,51.7,30.01,NNE,20,6.0,9.0,95,0.04,,,0.04,Wunderground v.1.15,2013-10-16 06:30:00,
2013-10-16 01:35:00,53.1,51.7,30.02,North,5,6.0,9.0,95,0.06,,,0.05,Wunderground v.1.15,2013-10-16 06:35:00,
2013-10-16 01:40:00,53.1,51.7,30.02,North,360,6.0,6.0,95,0.06,,,0.05,Wunderground v.1.15,2013-10-16 06:40:00,
2013-10-16 01:45:00,53.1,51.7,30.02,North,360,6.0,6.0,95,0.04,,,0.05,Wunderground v.1.15,2013-10-16 06:45:00,
2013-10-16 01:50:00,53.1,51.7,30.02,NNE,12,4.0,4.0,95,0.00,,,0.05,Wunderground v.1.15,2013-10-16 06:50:00,
2013-10-16 02:00:00,53.2,51.8,30.02,North,5,2.0,2.0,95,0.00,,,0.05,Wunderground v.1.15,2013-10-16 07:00:00,
2013-10-16 02:10:00,53.3,51.9,30.02,North,355,5.0,5.0,95,0.11,,,0.07,Wunderground v.1.15,2013-10-16 07:10:00,
2013-10-16 02:15:00,53.3,51.9,30.02,NNE,14,6.0,6.0,95,0.09,,,0.07,Wunderground v.1.15,2013-10-16 07:15:00,
2013-10-16 02:20:00,53.3,51.9,30.02,North,355,7.0,7.0,95,0.07,,,0.08,Wunderground v.1.15,2013-10-16 07:20:00,
2013-10-16 02:25:00,53.3,51.9,30.03,NNW,348,7.0,7.0,95,0.14,,,0.09,Wunderground v.1.15,2013-10-16 07:25:00,
2013-10-16 02:35:00,53.3,51.9,30.02,NW,322,8.0,8.0,95,0.18,,,0.11,Wunderground v.1.15,2013-10-16 07:35:00,
2013-10-16 02:40:00,53.2,51.8,30.03,NNW,339,8.0,12.0,95,0.19,,,0.13,Wunderground v.1.15,2013-10-16 07:40:00,
2013-10-16 02:45:00,53.2,51.8,30.03,NNW,337,9.0,12.0,95,0.11,,,0.14,Wunderground v.1.15,2013-10-16 07:45:00,
2013-10-16 02:50:00,53.2,51.8,30.03,North,5,8.0,8.0,95,0.11,,,0.14,Wunderground v.1.15,2013-10-16 07:50:00,
2013-10-16 03:00:00,53.2,51.8,30.02,North,360,5.0,9.0,95,0.24,,,0.17,Wunderground v.1.15,2013-10-16 08:00:00,
2013-10-16 03:10:00,53.1,51.7,30.01,North,10,4.0,8.0,95,0.14,,,0.19,Wunderground v.1.15,2013-10-16 08:10:00,
2013-10-16 03:20:00,53.0,51.6,30.01,North,349,8.0,17.0,95,0.10,,,0.21,Wunderground v.1.15,2013-10-16 08:20:00,
2013-10-16 03:25:00,53.0,51.6,30.01,NNW,345,9.0,17.0,95,0.05,,,0.21,Wunderground v.1.15,2013-10-16 08:25:00,
2013-10-16 03:30:00,53.0,51.6,30.01,North,355,8.0,10.0,95,0.04,,,0.21,Wunderground v.1.15,2013-10-16 08:30:00,
2013-10-16 03:35:00,53.0,51.6,30.00,North,360,9.0,10.0,95,0.00,,,0.21,Wunderground v.1.15,2013-10-16 08:35:00,
2013-10-16 03:40:00,52.9,51.5,30.00,North,11,8.0,8.0,95,0.00,,,0.21,Wunderground v.1.15,2013-10-16 08:40:00,
2013-10-16 03:50:00,52.9,51.5,30.01,North,9,6.0,6.0,95,0.00,,,0.21,Wunderground v.1.15,2013-10-16 08:50:00,
2013-10-16 03:55:00,53.0,51.6,30.01,North,360,5.0,8.0,95,0.00,,,0.21,Wunderground v.1.15,2013-10-16 08:55:00,
2013-10-16 04:00:00,53.0,51.6,30.01,North,350,5.0,6.0,95,0.00,,,0.21,Wunderground v.1.15,2013-10-16 09:00:00,
2013-10-16 04:10:00,53.1,51.7,30.01,North,5,4.0,5.0,95,0.00,,,0.22,Wunderground v.1.15,2013-10-16 09:10:00,
2013-10-16 04:15:00,53.1,51.7,30.01,North,5,5.0,5.0,95,0.00,,,0.22,Wunderground v.1.15,2013-10-16 09:15:00,
2013-10-16 04:20:00,53.2,51.8,30.02,North,10,4.0,4.0,95,0.00,,,0.22,Wunderground v.1.15,2013-10-16 09:20:00,
2013-10-16 04:30:00,53.2,51.8,30.02,North,5,8.0,8.0,95,0.00,,,0.22,Wunderground v.1.15,2013-10-16 09:30:00,
2013-10-16 04:35:00,53.1,51.7,30.01,North,5,9.0,9.0,95,0.00,,,0.23,Wunderground v.1.15,2013-10-16 09:35:00,
2013-10-16 04:40:00,53.0,51.6,30.02,NNE,22,8.0,8.0,95,0.00,,,0.23,Wunderground v.1.15,2013-10-16 09:40:00,
2013-10-16 04:45:00,53.0,51.6,30.02,North,9,6.0,8.0,95,0.00,,,0.23,Wunderground v.1.15,2013-10-16 09:45:00,
2013-10-16 04:50:00,52.9,51.5,30.02,NNE,17,6.0,9.0,95,0.00,,,0.23,Wunderground v.1.15,2013-10-16 09:50:00,
2013-10-16 05:00:00,52.8,51.4,30.03,NNE,17,6.0,9.0,95,0.00,,,0.23,Wunderground v.1.15,2013-10-16 10:00:00,
2013-10-16 05:10:00,52.8,51.4,30.03,North,10,7.0,7.0,95,0.00,,,0.23,Wunderground v.1.15,2013-10-16 10:10:00,
2013-10-16 05:15:00,52.8,51.4,30.03,NE,46,6.0,7.0,95,0.00,,,0.23,Wunderground v.1.15,2013-10-16 10:15:00,
2013-10-16 05:20:00,52.9,51.5,30.03,North,5,6.0,9.0,95,0.00,,,0.23,Wunderground v.1.15,2013-10-16 10:20:00,
2013-10-16 05:25:00,52.8,51.4,30.03,North,5,6.0,9.0,95,0.00,,,0.23,Wunderground v.1.15,2013-10-16 10:25:00,
2013-10-16 05:30:00,52.8,51.4,30.02,North,5,8.0,8.0,95,0.00,,,0.24,Wunderground v.1.15,2013-10-16 10:30:00,
2013-10-16 05:40:00,52.8,51.4,30.02,NNE,31,7.0,7.0,95,0.08,,,0.25,Wunderground v.1.15,2013-10-16 10:40:00,
2013-10-16 05:45:00,52.8,51.4,30.02,North,5,7.0,10.0,95,0.07,,,0.25,Wunderground v.1.15,2013-10-16 10:45:00,
2013-10-16 05:50:00,52.8,51.4,30.03,North,355,7.0,7.0,95,0.04,,,0.25,Wunderground v.1.15,2013-10-16 10:50:00,
2013-10-16 05:55:00,52.9,51.5,30.02,NNW,336,6.0,9.0,95,0.04,,,0.26,Wunderground v.1.15,2013-10-16 10:55:00,
2013-10-16 06:00:00,53.0,51.6,30.03,NNW,347,7.0,7.0,95,0.04,,,0.26,Wunderground v.1.15,2013-10-16 11:00:00,
2013-10-16 06:10:00,52.8,51.4,30.03,North,10,10.0,10.0,95,0.00,,,0.26,Wunderground v.1.15,2013-10-16 11:10:00,
2013-10-16 06:15:00,52.7,51.3,30.03,North,355,10.0,11.0,95,0.00,,,0.27,Wunderground v.1.15,2013-10-16 11:15:00,
2013-10-16 06:25:00,52.5,51.1,30.04,North,355,10.0,10.0,95,0.00,,,0.27,Wunderground v.1.15,2013-10-16 11:25:00,
2013-10-16 06:30:00,52.4,51.0,30.04,North,5,10.0,13.0,95,0.00,,,0.27,Wunderground v.1.15,2013-10-16 11:30:00,
2013-10-16 06:35:00,52.3,50.9,30.05,North,11,10.0,13.0,95,0.00,,,0.27,Wunderground v.1.15,2013-10-16 11:35:00,
2013-10-16 06:40:00,52.2,50.8,30.05,NNE,16,11.0,12.0,95,0.00,,,0.27,Wunderground v.1.15,2013-10-16 11:40:00,
2013-10-16 06:45:00,52.1,50.7,30.04,NNE,18,11.0,18.0,95,0.00,,,0.27,Wunderground v.1.15,2013-10-16 11:45:00,
2013-10-16 06:55:00,52.2,50.8,30.05,North,5,6.0,8.0,95,0.00,,,0.27,Wunderground v.1.15,2013-10-16 11:55:00,
2013-10-16 07:00:00,52.3,50.9,30.05,NNE,19,6.0,7.0,95,0.00,,,0.27,Wunderground v.1.15,2013-10-16 12:00:00,
2013-10-16 07:10:00,52.4,51.0,30.05,NNE,16,1.0,8.0,95,0.00,,,0.27,Wunderground v.1.15,2013-10-16 12:10:00,
2013-10-16 07:15:00,52.5,51.1,30.05,NNE,12,2.0,8.0,95,0.00,,,0.27,Wunderground v.1.15,2013-10-16 12:15:00,
2013-10-16 07:20:00,52.6,51.2,30.05,NNE,15,3.0,3.0,95,0.00,,,0.27,Wunderground v.1.15,2013-10-16 12:20:00,
2013-10-16 07:25:00,52.6,51.2,30.05,NNE,15,2.0,7.0,95,0.00,,,0.27,Wunderground v.1.15,2013-10-16 12:25:00,
2013-10-16 07:30:00,52.7,51.3,30.05,NNE,13,2.0,2.0,95,0.00,,,0.27,Wunderground v.1.15,2013-10-16 12:30:00,
2013-10-16 07:40:00,52.8,51.4,30.06,NNE,13,1.0,1.0,95,0.00,,,0.27,Wunderground v.1.15,2013-10-16 12:40:00,
2013-10-16 07:45:00,52.9,51.5,30.06,NNE,13,0.0,1.0,95,0.00,,,0.27,Wunderground v.1.15,2013-10-16 12:45:00,
2013-10-16 07:50:00,52.9,51.5,30.07,NNE,13,0.0,0.0,95,0.00,,,0.27,Wunderground v.1.15,2013-10-16 12:50:00,
2013-10-16 07:55:00,53.0,51.6,30.06,NNE,13,0.0,0.0,95,0.00,,,0.28,Wunderground v.1.15,2013-10-16 12:55:00,
2013-10-16 08:00:00,53.1,51.7,30.06,NNE,13,0.0,0.0,95,0.00,,,0.28,Wunderground v.1.15,2013-10-16 13:00:00,
2013-10-16 08:10:00,53.4,52.0,30.06,NNE,13,0.0,6.0,95,0.00,,,0.28,Wunderground v.1.15,2013-10-16 13:10:00,
2013-10-16 08:20:00,53.6,52.5,30.06,NNE,13,0.0,0.0,96,0.00,,,0.28,Wunderground v.1.15,2013-10-16 13:20:00,
2013-10-16 08:25:00,53.7,52.3,30.07,NNE,13,0.0,0.0,95,0.00,,,0.29,Wunderground v.1.15,2013-10-16 13:25:00,
2013-10-16 08:30:00,53.8,52.4,30.07,NNE,13,0.0,0.0,95,0.00,,,0.29,Wunderground v.1.15,2013-10-16 13:30:00,
2013-10-16 08:35:00,53.9,52.5,30.07,NNE,13,0.0,0.0,95,0.00,,,0.29,Wunderground v.1.15,2013-10-16 13:35:00,
2013-10-16 08:40:00,54.0,52.9,30.07,NNE,13,0.0,0.0,96,0.00,,,0.29,Wunderground v.1.15,2013-10-16 13:40:00,
2013-10-16 08:50:00,54.1,53.0,30.07,NNW,330,3.0,10.0,96,0.00,,,0.29,Wunderground v.1.15,2013-10-16 13:50:00,
2013-10-16 08:55:00,54.1,53.0,30.08,NNW,344,6.0,10.0,96,0.00,,,0.29,Wunderground v.1.15,2013-10-16 13:55:00,
2013-10-16 09:00:00,54.1,53.0,30.08,NNW,348,5.0,5.0,96,0.00,,,0.30,Wunderground v.1.15,2013-10-16 14:00:00,
2013-10-16 09:10:00,54.1,53.0,30.08,North,350,5.0,7.0,96,0.00,,,0.30,Wunderground v.1.15,2013-10-16 14:10:00,
2013-10-16 09:15:00,54.1,53.0,30.08,North,355,4.0,7.0,96,0.00,,,0.30,Wunderground v.1.15,2013-10-16 14:15:00,
2013-10-16 09:20:00,54.2,53.1,30.09,North,355,3.0,3.0,96,0.00,,,0.30,Wunderground v.1.15,2013-10-16 14:20:00,
2013-10-16 09:25:00,54.1,53.0,30.09,North,5,4.0,4.0,96,0.00,,,0.30,Wunderground v.1.15,2013-10-16 14:25:00,
2013-10-16 09:35:00,54.2,53.1,30.09,NNW,344,3.0,6.0,96,0.00,,,0.30,Wunderground v.1.15,2013-10-16 14:35:00,
2013-10-16 09:40:00,54.3,53.2,30.09,NNW,335,5.0,8.0,96,0.00,,,0.30,Wunderground v.1.15,2013-10-16 14:40:00,
2013-10-16 09:45:00,54.2,53.1,30.09,North,355,7.0,8.0,96,0.00,,,0.30,Wunderground v.1.15,2013-10-16 14:45:00,
2013-10-16 09:50:00,53.8,52.4,30.09,North,5,9.0,11.0,95,0.00,,,0.30,Wunderground v.1.15,2013-10-16 14:50:00,
2013-10-16 09:55:00,53.4,52.0,30.09,North,5,12.0,12.0,95,0.00,,,0.30,Wunderground v.1.15,2013-10-16 14:55:00,
2013-10-16 10:00:00,53.2,51.8,30.09,North,360,12.0,12.0,95,0.00,,,0.30,Wunderground v.1.15,2013-10-16 15:00:00,
2013-10-16 10:10:00,53.3,51.9,30.09,NNE,20,9.0,9.0,95,0.00,,,0.30,Wunderground v.1.15,2013-10-16 15:10:00,
2013-10-16 10:15:00,53.5,52.1,30.09,North,360,8.0,9.0,95,0.00,,,0.30,Wunderground v.1.15,2013-10-16 15:15:00,
2013-10-16 10:20:00,53.6,52.2,30.09,North,355,8.0,11.0,95,0.00,,,0.30,Wunderground v.1.15,2013-10-16 15:20:00,
2013-10-16 10:25:00,53.8,52.4,30.08,NNE,15,8.0,11.0,95,0.00,,,0.30,Wunderground v.1.15,2013-10-16 15:25:00,
2013-10-16 10:30:00,54.0,52.6,30.08,NNE,13,7.0,7.0,95,0.00,,,0.30,Wunderground v.1.15,2013-10-16 15:30:00,
2013-10-16 10:35:00,54.3,52.6,30.09,North,5,6.0,10.0,94,0.00,,,0.30,Wunderground v.1.15,2013-10-16 15:35:00,
2013-10-16 10:45:00,54.5,52.5,30.09,NNE,14,8.0,8.0,93,0.00,,,0.31,Wunderground v.1.15,2013-10-16 15:45:00,
2013-10-16 10:50:00,54.8,52.8,30.09,North,355,7.0,7.0,93,0.00,,,0.31,Wunderground v.1.15,2013-10-16 15:50:00,
2013-10-16 10:55:00,54.9,52.6,30.10,North,360,6.0,7.0,92,0.00,,,0.31,Wunderground v.1.15,2013-10-16 15:55:00,
2013-10-16 11:00:00,54.9,52.6,30.10,North,5,7.0,8.0,92,0.00,,,0.31,Wunderground v.1.15,2013-10-16 16:00:00,
2013-10-16 11:15:00,55.0,51.5,30.10,North,10,9.0,11.0,88,0.00,,,0.31,Wunderground v.1.15,2013-10-16 16:15:00,
2013-10-16 11:20:00,55.3,51.8,30.10,North,5,8.0,10.0,88,0.00,,,0.31,Wunderground v.1.15,2013-10-16 16:20:00,
2013-10-16 11:30:00,55.7,51.6,30.10,North,5,7.0,7.0,86,0.00,,,0.31,Wunderground v.1.15,2013-10-16 16:30:00,
2013-10-16 11:35:00,55.9,51.8,30.10,North,355,7.0,7.0,86,0.00,,,0.31,Wunderground v.1.15,2013-10-16 16:35:00,
2013-10-16 11:40:00,56.2,51.7,30.10,North,5,7.0,10.0,85,0.00,,,0.31,Wunderground v.1.15,2013-10-16 16:40:00,
2013-10-16 11:45:00,56.3,51.5,30.09,NNE,28,8.0,10.0,84,0.00,,,0.31,Wunderground v.1.15,2013-10-16 16:45:00,
2013-10-16 11:50:00,56.7,52.2,30.09,NNW,330,6.0,6.0,85,0.00,,,0.31,Wunderground v.1.15,2013-10-16 16:50:00,
2013-10-16 12:00:00,57.6,52.1,30.09,North,9,7.0,12.0,82,0.00,,,0.31,Wunderground v.1.15,2013-10-16 17:00:00,
2013-10-16 12:10:00,58.3,51.8,30.09,North,355,7.0,7.0,79,0.00,,,0.31,Wunderground v.1.15,2013-10-16 17:10:00,
2013-10-16 12:20:00,58.6,52.1,30.08,NNW,328,6.0,11.0,79,0.00,,,0.31,Wunderground v.1.15,2013-10-16 17:20:00,
2013-10-16 12:25:00,58.7,51.5,30.08,North,5,7.0,11.0,77,0.00,,,0.31,Wunderground v.1.15,2013-10-16 17:25:00,
2013-10-16 12:30:00,59.1,52.2,30.08,NNE,14,5.0,5.0,78,0.00,,,0.31,Wunderground v.1.15,2013-10-16 17:30:00,
2013-10-16 12:35:00,60.2,52.6,30.07,North,5,4.0,5.0,76,0.00,,,0.31,Wunderground v.1.15,2013-10-16 17:35:00,
2013-10-16 12:45:00,60.7,51.6,30.07,NE,42,9.0,12.0,72,0.00,,,0.31,Wunderground v.1.15,2013-10-16 17:45:00,
2013-10-16 12:50:00,61.1,50.8,30.07,North,5,8.0,13.0,69,0.00,,,0.31,Wunderground v.1.15,2013-10-16 17:50:00,
2013-10-16 12:55:00,60.7,51.2,30.07,NNE,28,8.0,13.0,71,0.00,,,0.31,Wunderground v.1.15,2013-10-16 17:55:00,
2013-10-16 13:00:00,60.8,51.0,30.07,North,9,6.0,6.0,70,0.00,,,0.31,Wunderground v.1.15,2013-10-16 18:00:00,
2013-10-16 13:10:00,60.8,51.7,30.07,NE,40,5.0,7.0,72,0.00,,,0.31,Wunderground v.1.15,2013-10-16 18:10:00,
2013-10-16 13:15:00,60.8,51.0,30.07,North,11,6.0,8.0,70,0.00,,,0.31,Wunderground v.1.15,2013-10-16 18:15:00,
2013-10-16 13:20:00,61.0,51.5,30.06,NE,46,6.0,14.0,71,0.00,,,0.31,Wunderground v.1.15,2013-10-16 18:20:00,
2013-10-16 13:30:00,60.9,50.7,30.06,North,10,7.0,8.0,69,0.00,,,0.31,Wunderground v.1.15,2013-10-16 18:30:00,
2013-10-16 13:35:00,60.9,50.7,30.06,NNW,340,7.0,8.0,69,0.00,,,0.31,Wunderground v.1.15,2013-10-16 18:35:00,
2013-10-16 13:40:00,60.9,50.3,30.05,North,355,8.0,8.0,68,0.00,,,0.31,Wunderground v.1.15,2013-10-16 18:40:00,
2013-10-16 13:45:00,60.8,49.8,30.05,NNW,342,6.0,8.0,67,0.00,,,0.31,Wunderground v.1.15,2013-10-16 18:45:00,
2013-10-16 13:55:00,61.6,50.5,30.05,NNE,24,7.0,7.0,67,0.00,,,0.31,Wunderground v.1.15,2013-10-16 18:55:00,
2013-10-16 14:00:00,62.1,51.8,30.05,NNE,33,6.0,8.0,69,0.00,,,0.31,Wunderground v.1.15,2013-10-16 19:00:00,
2013-10-16 14:05:00,62.3,51.2,30.04,NNE,21,6.0,8.0,67,0.00,,,0.31,Wunderground v.1.15,2013-10-16 19:05:00,
2013-10-16 14:15:00,62.3,50.8,30.03,NNW,330,6.0,9.0,66,0.00,,,0.31,Wunderground v.1.15,2013-10-16 19:15:00,
2013-10-16 14:20:00,62.3,50.8,30.03,NNW,329,7.0,10.0,66,0.00,,,0.31,Wunderground v.1.15,2013-10-16 19:20:00,
2013-10-16 14:25:00,62.4,51.7,30.03,NNE,19,7.0,10.0,68,0.00,,,0.31,Wunderground v.1.15,2013-10-16 19:25:00,
2013-10-16 14:30:00,63.6,51.6,30.03,NW,320,6.0,9.0,65,0.00,,,0.31,Wunderground v.1.15,2013-10-16 19:30:00,
2013-10-16 14:35:00,63.6,51.6,30.03,North,355,6.0,9.0,65,0.00,,,0.31,Wunderground v.1.15,2013-10-16 19:35:00,
2013-10-16 14:45:00,62.9,51.4,30.03,NNW,340,6.0,8.0,66,0.00,,,0.31,Wunderground v.1.15,2013-10-16 19:45:00,
2013-10-16 14:50:00,63.2,51.2,30.03,NNW,336,7.0,7.0,65,0.00,,,0.31,Wunderground v.1.15,2013-10-16 19:50:00,
2013-10-16 14:55:00,63.3,51.3,30.03,NNW,333,6.0,11.0,65,0.00,,,0.31,Wunderground v.1.15,2013-10-16 19:55:00,
2013-10-16 15:00:00,63.2,51.2,30.03,NNW,329,6.0,6.0,65,0.00,,,0.31,Wunderground v.1.15,2013-10-16 20:00:00,
2013-10-16 15:10:00,63.6,50.8,30.03,NW,323,6.0,8.0,63,0.00,,,0.31,Wunderground v.1.15,2013-10-16 20:10:00,
2013-10-16 15:15:00,63.5,51.1,30.03,NW,321,7.0,11.0,64,0.00,,,0.31,Wunderground v.1.15,2013-10-16 20:15:00,
2013-10-16 15:25:00,63.0,50.2,30.02,NNW,335,9.0,11.0,63,0.00,,,0.31,Wunderground v.1.15,2013-10-16 20:25:00,
2013-10-16 15:30:00,62.9,50.1,30.02,NW,317,9.0,10.0,63,0.00,,,0.31,Wunderground v.1.15,2013-10-16 20:30:00,
2013-10-16 15:35:00,63.0,51.0,30.02,North,360,8.0,10.0,65,0.00,,,0.31,Wunderground v.1.15,2013-10-16 20:35:00,
2013-10-16 15:40:00,63.4,50.1,30.02,North,355,7.0,7.0,62,0.00,,,0.31,Wunderground v.1.15,2013-10-16 20:40:00,
2013-10-16 15:45:00,63.4,50.1,30.02,North,9,8.0,8.0,62,0.00,,,0.31,Wunderground v.1.15,2013-10-16 20:45:00,
2013-10-16 15:55:00,63.8,50.1,30.02,NNW,344,8.0,10.0,61,0.00,,,0.31,Wunderground v.1.15,2013-10-16 20:55:00,
2013-10-16 16:00:00,63.9,50.2,30.02,NNW,338,8.0,8.0,61,0.00,,,0.31,Wunderground v.1.15,2013-10-16 21:00:00,
2013-10-16 16:10:00,64.2,50.5,30.02,North,5,7.0,7.0,61,0.00,,,0.31,Wunderground v.1.15,2013-10-16 21:10:00,
2013-10-16 16:15:00,64.4,48.8,30.02,NNW,348,7.0,7.0,57,0.00,,,0.31,Wunderground v.1.15,2013-10-16 21:15:00,
2013-10-16 16:20:00,64.3,49.7,30.01,NNW,336,6.0,6.0,59,0.00,,,0.31,Wunderground v.1.15,2013-10-16 21:20:00,
2013-10-16 16:25:00,64.4,49.3,30.01,North,360,6.0,6.0,58,0.00,,,0.31,Wunderground v.1.15,2013-10-16 21:25:00,
2013-10-16 16:35:00,64.4,49.8,30.01,North,355,4.0,6.0,59,0.00,,,0.31,Wunderground v.1.15,2013-10-16 21:35:00,
2013-10-16 16:40:00,64.4,49.8,30.01,NNE,13,4.0,6.0,59,0.00,,,0.31,Wunderground v.1.15,2013-10-16 21:40:00,
2013-10-16 16:45:00,64.6,49.9,30.00,North,360,5.0,6.0,59,0.00,,,0.31,Wunderground v.1.15,2013-10-16 21:45:00,
2013-10-16 16:50:00,65.0,50.3,30.00,North,9,5.0,5.0,59,0.00,,,0.31,Wunderground v.1.15,2013-10-16 21:50:00,
2013-10-16 17:00:00,64.8,49.7,30.01,North,360,5.0,5.0,58,0.00,,,0.31,Wunderground v.1.15,2013-10-16 22:00:00,
2013-10-16 17:10:00,64.5,49.4,30.01,NNW,338,3.0,3.0,58,0.00,,,0.31,Wunderground v.1.15,2013-10-16 22:10:00,
2013-10-16 17:20:00,64.4,49.8,30.01,North,355,5.0,5.0,59,0.00,,,0.31,Wunderground v.1.15,2013-10-16 22:20:00,
2013-10-16 17:25:00,64.7,50.0,30.01,North,355,4.0,6.0,59,0.00,,,0.31,Wunderground v.1.15,2013-10-16 22:25:00,
2013-10-16 17:30:00,65.6,50.0,30.01,NNW,337,5.0,5.0,57,0.00,,,0.31,Wunderground v.1.15,2013-10-16 22:30:00,
2013-10-16 17:35:00,65.6,49.5,30.01,NNW,329,7.0,7.0,56,0.00,,,0.31,Wunderground v.1.15,2013-10-16 22:35:00,
2013-10-16 17:40:00,65.3,49.2,30.01,NNW,331,7.0,7.0,56,0.00,,,0.31,Wunderground v.1.15,2013-10-16 22:40:00,
2013-10-16 17:50:00,64.4,48.8,30.02,NW,323,7.0,7.0,57,0.00,,,0.31,Wunderground v.1.15,2013-10-16 22:50:00,
2013-10-16 17:55:00,64.0,48.9,30.02,North,355,7.0,9.0,58,0.00,,,0.31,Wunderground v.1.15,2013-10-16 22:55:00,
2013-10-16 18:00:00,63.8,48.3,30.02,NNW,345,7.0,10.0,57,0.00,,,0.31,Wunderground v.1.15,2013-10-16 23:00:00,
2013-10-16 18:10:00,63.6,49.0,30.01,North,355,6.0,9.0,59,0.00,,,0.31,Wunderground v.1.15,2013-10-16 23:10:00,
2013-10-16 18:15:00,63.6,49.5,30.01,North,355,4.0,9.0,60,0.00,,,0.31,Wunderground v.1.15,2013-10-16 23:15:00,
2013-10-16 18:20:00,63.6,49.0,30.01,North,5,3.0,3.0,59,0.00,,,0.31,Wunderground v.1.15,2013-10-16 23:20:00,
2013-10-16 18:25:00,63.5,48.9,30.01,North,355,4.0,4.0,59,0.00,,,0.31,Wunderground v.1.15,2013-10-16 23:25:00,
2013-10-16 18:35:00,63.4,49.7,30.02,NNW,339,3.0,6.0,61,0.00,,,0.31,Wunderground v.1.15,2013-10-16 23:35:00,
2013-10-16 18:40:00,63.3,49.6,30.02,NNW,343,5.0,8.0,61,0.00,,,0.31,Wunderground v.1.15,2013-10-16 23:40:00,
2013-10-16 18:45:00,63.2,48.6,30.02,NNW,335,6.0,8.0,59,0.00,,,0.31,Wunderground v.1.15,2013-10-16 23:45:00,
2013-10-16 18:50:00,63.1,48.1,30.02,NNW,343,6.0,8.0,58,0.00,,,0.31,Wunderground v.1.15,2013-10-16 23:50:00,
2013-10-16 19:00:00,63.0,48.4,30.02,NNW,339,4.0,5.0,59,0.00,,,0.31,Wunderground v.1.15,2013-10-17 00:00:00,
2013-10-16 19:10:00,62.8,48.7,30.02,North,355,3.0,4.0,60,0.00,,,0.31,Wunderground v.1.15,2013-10-17 00:10:00,
2013-10-16 19:15:00,62.7,48.6,30.02,North,355,3.0,6.0,60,0.00,,,0.31,Wunderground v.1.15,2013-10-17 00:15:00,
2013-10-16 19:20:00,62.6,49.0,30.02,NNW,344,4.0,5.0,61,0.00,,,0.31,Wunderground v.1.15,2013-10-17 00:20:00,
2013-10-16 19:25:00,62.5,48.9,30.02,NNW,344,5.0,5.0,61,0.00,,,0.31,Wunderground v.1.15,2013-10-17 00:25:00,
2013-10-16 19:35:00,62.3,49.1,30.02,NNW,344,2.0,4.0,62,0.00,,,0.31,Wunderground v.1.15,2013-10-17 00:35:00,
2013-10-16 19:40:00,62.1,49.4,30.02,NNW,343,1.0,1.0,63,0.00,,,0.31,Wunderground v.1.15,2013-10-17 00:40:00,
2013-10-16 19:45:00,62.0,49.3,30.02,NNW,343,2.0,5.0,63,0.00,,,0.31,Wunderground v.1.15,2013-10-17 00:45:00,
2013-10-16 19:50:00,62.0,49.7,30.02,NNW,342,3.0,4.0,64,0.00,,,0.31,Wunderground v.1.15,2013-10-17 00:50:00,
2013-10-16 20:00:00,61.8,49.1,30.03,NNW,334,5.0,5.0,63,0.00,,,0.31,Wunderground v.1.15,2013-10-17 01:00:00,
2013-10-16 20:10:00,61.7,49.0,30.03,NNW,333,4.0,5.0,63,0.00,,,0.31,Wunderground v.1.15,2013-10-17 01:10:00,
2013-10-16 20:15:00,61.7,49.0,30.03,NNW,334,3.0,5.0,63,0.00,,,0.31,Wunderground v.1.15,2013-10-17 01:15:00,
2013-10-16 20:20:00,61.7,49.0,30.04,NNW,333,4.0,5.0,63,0.00,,,0.31,Wunderground v.1.15,2013-10-17 01:20:00,
2013-10-16 20:25:00,61.7,49.0,30.04,NNW,333,4.0,6.0,63,0.00,,,0.31,Wunderground v.1.15,2013-10-17 01:25:00,
2013-10-16 20:30:00,61.6,48.9,30.04,NNW,333,3.0,3.0,63,0.00,,,0.31,Wunderground v.1.15,2013-10-17 01:30:00,
2013-10-16 20:40:00,61.5,49.2,30.05,NNW,330,2.0,5.0,64,0.00,,,0.31,Wunderground v.1.15,2013-10-17 01:40:00,
2013-10-16 20:45:00,61.4,49.1,30.05,NNW,330,3.0,5.0,64,0.00,,,0.31,Wunderground v.1.15,2013-10-17 01:45:00,
2013-10-16 20:50:00,61.3,49.0,30.05,NNW,329,5.0,6.0,64,0.00,,,0.31,Wunderground v.1.15,2013-10-17 01:50:00,
2013-10-16 20:55:00,61.2,48.9,30.05,NNW,328,5.0,6.0,64,0.00,,,0.31,Wunderground v.1.15,2013-10-17 01:55:00,
2013-10-16 21:00:00,60.9,48.6,30.05,NW,325,5.0,5.0,64,0.00,,,0.31,Wunderground v.1.15,2013-10-17 02:00:00,
2013-10-16 21:10:00,60.7,48.4,30.06,NW,323,6.0,6.0,64,0.00,,,0.31,Wunderground v.1.15,2013-10-17 02:10:00,
2013-10-16 21:15:00,60.7,48.4,30.06,NW,325,6.0,10.0,64,0.00,,,0.31,Wunderground v.1.15,2013-10-17 02:15:00,
2013-10-16 21:25:00,60.7,48.0,30.06,NNW,327,8.0,8.0,63,0.00,,,0.31,Wunderground v.1.15,2013-10-17 02:25:00,
2013-10-16 21:30:00,60.7,48.0,30.06,NNW,329,7.0,7.0,63,0.00,,,0.31,Wunderground v.1.15,2013-10-17 02:30:00,
2013-10-16 21:35:00,60.7,48.0,30.06,NW,326,6.0,7.0,63,0.00,,,0.31,Wunderground v.1.15,2013-10-17 02:35:00,
2013-10-16 21:40:00,60.7,48.0,30.06,NW,323,7.0,7.0,63,0.00,,,0.31,Wunderground v.1.15,2013-10-17 02:40:00,
2013-10-16 21:50:00,60.7,48.0,30.06,NNW,334,6.0,6.0,63,0.00,,,0.31,Wunderground v.1.15,2013-10-17 02:50:00,
2013-10-16 21:55:00,60.5,47.4,30.06,NNW,333,6.0,6.0,62,0.00,,,0.31,Wunderground v.1.15,2013-10-17 02:55:00,
2013-10-16 22:00:00,60.4,47.7,30.06,NNW,340,6.0,6.0,63,0.00,,,0.31,Wunderground v.1.15,2013-10-17 03:00:00,
2013-10-16 22:10:00,59.9,47.3,30.07,NNW,338,7.0,7.0,63,0.00,,,0.31,Wunderground v.1.15,2013-10-17 03:10:00,
2013-10-16 22:15:00,59.8,47.2,30.07,NNW,343,7.0,8.0,63,0.00,,,0.31,Wunderground v.1.15,2013-10-17 03:15:00,
2013-10-16 22:20:00,59.6,47.4,30.07,NNW,343,6.0,6.0,64,0.00,,,0.31,Wunderground v.1.15,2013-10-17 03:20:00,
2013-10-16 22:30:00,59.4,47.6,30.07,NNW,342,5.0,6.0,65,0.00,,,0.31,Wunderground v.1.15,2013-10-17 03:30:00,
2013-10-16 22:35:00,59.2,47.4,30.07,NNW,344,5.0,6.0,65,0.00,,,0.31,Wunderground v.1.15,2013-10-17 03:35:00,
2013-10-16 22:40:00,59.1,47.7,30.06,NNW,344,5.0,5.0,66,0.00,,,0.31,Wunderground v.1.15,2013-10-17 03:40:00,
2013-10-16 22:45:00,59.0,48.1,30.07,NNW,344,4.0,5.0,67,0.00,,,0.31,Wunderground v.1.15,2013-10-17 03:45:00,
2013-10-16 22:50:00,58.9,48.0,30.07,NNW,343,4.0,4.0,67,0.00,,,0.31,Wunderground v.1.15,2013-10-17 03:50:00,
2013-10-16 23:00:00,59.0,47.7,30.07,NNW,346,6.0,6.0,66,0.00,,,0.31,Wunderground v.1.15,2013-10-17 04:00:00,
2013-10-16 23:05:00,59.1,47.7,30.07,NNW,343,6.0,6.0,66,0.00,,,0.31,Wunderground v.1.15,2013-10-17 04:05:00,
2013-10-16 23:10:00,59.1,47.7,30.07,NNW,340,6.0,8.0,66,0.00,,,0.31,Wunderground v.1.15,2013-10-17 04:10:00,
2013-10-16 23:15:00,59.1,47.7,30.07,NNW,336,6.0,8.0,66,0.00,,,0.31,Wunderground v.1.15,2013-10-17 04:15:00,
2013-10-16 23:20:00,59.1,48.1,30.07,NNW,331,6.0,6.0,67,0.00,,,0.31,Wunderground v.1.15,2013-10-17 04:20:00,
2013-10-16 23:25:00,59.1,47.7,30.07,North,355,8.0,8.0,66,0.00,,,0.31,Wunderground v.1.15,2013-10-17 04:25:00,
2013-10-16 23:30:00,59.0,47.7,30.07,NNW,327,8.0,9.0,66,0.00,,,0.31,Wunderground v.1.15,2013-10-17 04:30:00,
2013-10-16 23:35:00,58.9,47.6,30.07,NNW,338,7.0,10.0,66,0.00,,,0.31,Wunderground v.1.15,2013-10-17 04:35:00,
2013-10-16 23:40:00,58.7,47.8,30.07,NNW,338,7.0,7.0,67,0.00,,,0.31,Wunderground v.1.15,2013-10-17 04:40:00,
2013-10-16 23:45:00,58.4,47.9,30.07,NW,325,6.0,7.0,68,0.00,,,0.31,Wunderground v.1.15,2013-10-17 04:45:00,
2013-10-16 23:50:00,58.1,47.6,30.07,NNW,327,6.0,7.0,68,0.00,,,0.31,Wunderground v.1.15,2013-10-17 04:50:00,
2013-10-16 23:55:00,57.7,47.6,30.07,NW,321,7.0,7.0,69,0.00,,,0.31,Wunderground v.1.15,2013-10-17 04:55:00,